RH
92 97 100 99 99 101 99 97 99 100 100 100 100 100 100 100 100 100 100 95 85 83 85 83 78 79 85 91 96 99 100 100 100 100 100 100 100 100 100 100 100 99 99 98 95 92 82 71 66 67 65 61 56 58 63 66 69 70 70 68 66 63 61 64 63 62 66 65 53 41 36 34 33 32
88 87 89 90 92 99 101 99 100 101 100 100 100 100 100 100 100 100 99 94 86 85 89 87 84 86 89 93 97 99 100 100 100 99 100 100 100 100 100 100 100 98 99 99 96 93 84 73 70 70 70 68 62 59 62 66 67 68 70 70 67 65 64 62 59 58 59 59 54 45 36 32 31 32
95 88 86 85 83 87 94 97 100 101 100 100 100 100 100 100 100 100 99 94 87 85 86 86 88 90 91 93 95 96 97 98 100 100 100 100 100 100 100 100 100 99 99 99 98 95 86 76 74 73 72 73 69 64 62 65 68 68 68 69 68 67 67 65 62 59 57 57 53 46 40 37 36 38
96 93 93 93 85 78 78 82 92 101 100 99 100 100 100 100 99 99 101 97 88 84 84 83 86 89 91 92 90 90 93 94 97 99 100 100 100 100 100 99 100 100 99 98 98 95 86 79 78 75 73 75 76 72 67 67 70 71 70 69 70 69 69 67 65 62 59 57 54 50 49 47 45 45
98 97 97 98 96 87 70 58 73 97 102 99 101 100 99 101 100 99 101 96 86 83 84 82 81 85 89 89 86 86 89 92 95 98 100 100 100 100 100 100 100 100 100 99 96 93 88 83 81 78 76 76 80 81 78 76 76 76 75 73 72 71 70 69 67 64 62 59 57 56 54 52 50 48
101 101 100 100 101 99 80 55 61 90 102 99 100 101 100 100 100 100 99 93 83 81 84 84 81 82 85 87 86 85 87 92 97 100 100 100 100 100 100 100 100 100 99 97 94 92 91 89 85 83 81 82 87 91 91 90 89 87 85 82 78 75 72 72 70 67 64 61 59 59 57 56 54 51
102 101 100 100 101 102 93 72 66 84 97 97 96 99 100 100 100 100 98 92 85 81 83 85 85 83 82 83 86 86 88 93 98 99 100 100 100 100 100 100 100 100 99 97 95 95 95 94 92 89 87 88 94 99 99 99 98 98 97 94 91 85 79 76 74 71 68 65 62 60 59 58 56 55
100 100 99 100 101 102 98 88 79 79 84 87 89 91 94 97 98 98 97 92 86 83 83 84 86 87 85 82 85 89 90 92 95 97 99 99 99 100 100 100 100 100 100 99 99 99 98 98 98 96 94 94 98 101 100 100 100 100 100 100 99 97 92 87 83 79 75 70 67 65 63 61 59 57
95 99 99 98 99 99 96 93 89 83 79 77 77 78 81 84 87 90 93 91 84 82 83 83 83 86 87 85 85 89 91 92 94 97 99 99 99 100 100 100 100 100 100 99 100 100 100 100 100 100 98 98 100 101 100 100 100 100 100 100 100 100 99 98 95 91 87 81 76 73 70 69 67 65
91 93 94 91 89 89 89 88 87 85 82 79 76 73 71 70 72 77 84 87 85 82 82 82 81 82 85 85 83 86 91 94 96 98 100 100 99 99 99 99 100 100 100 100 100 100 100 100 100 100 100 100 100 100 100 100 100 100 100 100 100 100 100 100 100 99 97 94 89 84 79 77 75 74
94 92 92 88 84 83 82 82 81 79 77 77 77 75 70 64 64 69 76 80 82 82 82 84 83 79 79 81 81 82 88 95 98 99 100 100 98 97 97 99 100 100 100 100 100 100 100 100 100 100 100 100 100 100 100 100 100 100 100 100 100 100 100 100 100 100 100 100 98 96 91 87 83 81
98 96 95 93 90 87 83 79 79 78 76 76 76 77 73 65 61 63 69 73 75 77 79 83 84 82 80 79 79 81 85 90 93 93 94 95 97 98 98 100 100 100 100 100 100 100 100 99 100 100 100 100 100 100 100 100 100 100 100 100 99 99 100 100 100 100 100 100 100 100 99 97 95 90
94 93 92 91 89 88 85 84 83 82 82 84 86 87 85 77 67 63 65 68 70 71 73 75 77 79 80 79 77 79 82 84 84 87 89 90 94 99 101 100 100 100 100 100 100 100 100 100 100 100 100 100 100 100 100 99 100 100 100 100 99 99 100 100 100 100 100 100 100 100 100 100 100 97
96 93 90 89 88 87 87 89 90 89 88 89 92 94 94 90 86 82 78 73 69 69 70 68 67 69 73 76 76 76 78 80 82 85 86 86 88 93 98 100 100 100 100 100 100 100 100 100 100 100 100 100 99 100 100 100 100 100 100 100 99 99 100 100 100 100 100 100 100 100 100 100 100 99
101 100 96 93 92 91 90 91 91 90 88 88 89 91 92 93 94 95 93 87 81 78 74 71 69 65 63 68 74 77 79 81 85 85 83 83 84 86 89 93 95 98 100 100 100 100 100 100 100 100 100 100 100 100 100 100 100 100 100 99 99 100 100 100 100 100 100 100 99 100 100 99 99 98
96 97 96 93 90 89 88 87 84 83 82 81 80 81 83 86 88 90 92 91 91 89 85 82 79 71 64 62 65 71 77 83 91 93 91 90 87 84 83 85 88 94 99 101 100 100 100 100 100 100 99 100 100 100 100 100 100 100 100 99 100 100 100 100 100 99 100 100 100 99 100 100 99 98
83 82 82 81 79 77 76 74 73 73 74 72 69 67 69 72 76 80 83 85 89 94 94 90 84 78 75 69 62 62 69 78 91 98 100 100 96 90 85 85 89 94 99 102 102 101 100 100 100 100 100 100 100 99 100 100 100 100 100 100 100 100 100 100 99 99 99 100 99 99 100 100 100 98
63 61 60 59 59 62 63 63 64 67 70 70 67 62 60 61 64 70 74 77 82 89 92 89 82 78 79 75 69 66 66 68 77 85 89 94 97 95 91 90 92 93 94 96 99 99 99 99 98 97 97 100 100 100 100 100 100 100 100 100 100 100 100 100 99 99 100 100 100 100 100 100 100 100
36 35 35 33 36 41 46 53 60 64 67 70 69 64 60 58 60 63 67 71 75 80 85 87 84 80 78 77 78 78 73 66 65 68 73 79 85 87 86 84 84 83 83 86 89 89 90 93 95 95 96 99 99 99 99 100 100 100 100 100 99 98 98 99 99 100 100 100 100 100 99 99 99 100
43 42 40 38 36 35 35 41 52 61 66 67 65 62 60 59 59 61 65 70 74 77 80 85 86 85 83 82 81 80 78 73 68 65 66 68 69 69 69 68 68 70 71 74 79 82 85 89 90 91 94 97 98 99 99 99 100 100 100 100 98 96 95 95 97 98 99 100 100 99 99 99 99 99
72 70 70 68 66 61 54 51 55 65 74 72 64 58 57 57 56 57 61 67 72 76 78 82 86 89 91 92 88 82 79 79 78 72 64 58 57 58 59 59 59 60 62 64 68 72 79 86 88 87 89 92 95 98 100 100 101 101 101 100 99 97 95 94 94 94 94 95 97 97 97 97 96 97
89 89 90 90 89 86 82 79 78 82 89 89 75 61 56 54 51 51 56 60 64 69 74 77 81 84 85 88 88 84 81 83 83 75 63 57 56 54 53 53 54 56 57 58 60 63 67 74 79 81 83 87 89 90 92 95 98 99 100 100 100 100 98 97 96 95 94 93 94 94 95 95 94 95
98 98 99 98 98 96 94 96 96 95 99 100 89 74 64 54 47 47 53 57 60 64 67 69 71 72 74 79 82 83 83 81 74 66 61 59 57 53 50 51 51 51 50 51 54 56 57 60 66 69 71 78 86 88 86 85 87 90 91 93 95 98 99 99 99 98 97 97 96 96 98 98 97 95
101 101 101 101 101 101 99 100 100 99 101 100 94 87 75 56 45 49 55 58 62 65 68 71 74 75 77 80 83 85 84 76 67 61 59 54 51 51 51 52 52 50 48 49 52 52 53 55 59 59 57 62 74 86 91 89 86 84 84 83 85 88 91 93 95 96 96 96 98 99 100 100 99 98
92 92 93 95 98 101 101 100 100 99 101 100 95 90 80 65 59 63 63 61 62 64 68 76 82 84 84 85 86 88 85 77 69 67 65 57 51 51 52 53 55 53 51 52 53 53 53 55 57 58 56 53 55 65 79 88 90 87 84 82 82 84 85 86 87 90 92 94 97 100 100 99 100 100
81 87 92 94 97 101 101 100 101 99 100 101 94 86 83 82 83 83 75 67 65 65 67 74 81 86 88 86 85 85 84 81 78 78 76 69 62 59 57 56 56 54 53 57 59 59 60 61 61 62 60 54 49 48 58 72 81 84 85 85 86 88 90 88 87 88 89 91 94 97 99 100 100 100
81 87 94 96 99 101 100 100 102 101 101 101 93 83 83 90 97 96 85 74 71 72 75 79 83 86 87 83 82 85 89 92 92 90 87 81 75 73 70 66 62 56 56 60 62 63 66 68 67 66 63 58 53 47 46 54 63 70 80 89 93 93 93 93 93 93 92 91 91 93 95 97 98 99
76 81 88 94 97 99 97 97 99 100 100 100 96 89 87 92 100 102 92 83 82 85 87 87 86 84 82 80 82 88 94 97 96 92 86 81 79 79 78 76 73 68 65 64 62 63 68 72 72 70 68 65 60 54 51 53 56 61 73 85 92 94 93 92 91 91 93 93 93 93 95 96 98 99
75 80 87 93 97 95 92 92 96 98 99 100 99 95 92 94 100 102 98 94 94 95 96 96 92 86 82 79 77 80 87 93 93 89 84 79 78 81 82 80 77 76 77 76 70 65 66 69 71 72 72 71 68 65 63 64 63 65 71 79 85 89 90 89 88 88 90 90 91 93 94 94 96 98
73 77 80 86 93 95 92 91 92 95 97 100 101 99 98 100 101 101 100 97 95 96 98 99 95 90 85 81 77 76 80 86 87 86 87 88 88 90 93 90 82 79 83 86 82 74 68 68 73 75 75 73 70 67 67 69 72 76 81 84 86 87 86 85 85 86 87 87 86 87 88 89 91 94
70 75 78 80 84 87 87 86 89 93 97 100 101 101 100 99 96 94 96 97 96 98 100 96 93 92 90 87 85 84 86 89 90 90 94 99 98 97 100 99 90 83 86 91 91 86 80 78 80 81 78 75 72 72 76 79 82 88 91 91 91 90 88 87 87 87 87 86 84 82 84 87 89 92
61 64 75 83 83 80 78 78 83 90 95 98 99 96 92 89 86 87 94 99 99 98 97 95 94 94 93 93 95 97 98 99 100 100 100 101 101 100 100 101 97 90 87 89 92 93 92 90 88 85 81 77 76 78 82 84 86 91 94 93 92 91 88 87 87 88 88 87 85 84 85 86 88 91
61 53 62 76 81 78 75 76 81 87 91 93 92 87 84 86 87 89 94 98 97 95 95 94 92 91 91 94 99 101 101 101 101 101 100 100 101 101 100 100 100 96 92 91 94 96 97 96 92 88 85 83 83 85 87 88 91 96 99 98 95 92 90 91 91 92 91 87 85 87 88 89 91 93
75 59 55 61 68 72 74 75 80 85 87 86 84 83 85 90 92 93 96 99 99 99 98 96 95 95 96 99 101 101 101 101 100 100 100 100 100 100 100 100 99 98 95 95 97 99 99 98 96 95 95 94 94 94 94 95 98 101 101 98 94 92 94 96 96 95 92 88 87 89 90 91 90 88
94 80 65 57 58 65 71 76 82 86 85 83 82 83 86 87 87 91 96 99 99 99 98 97 97 98 98 99 100 99 99 100 100 100 100 100 100 100 100 100 100 99 98 99 101 102 102 101 100 101 101 100 99 98 98 98 101 102 100 96 94 94 94 93 91 90 89 86 85 84 83 81 78 76
101 97 86 72 62 59 62 69 78 84 86 85 84 84 82 82 85 91 97 98 96 95 94 94 94 95 95 97 98 99 100 100 100 100 100 100 100 100 100 101 102 102 102 102 102 100 99 99 99 99 99 98 97 97 97 98 98 98 95 91 89 86 82 77 74 73 72 73 73 72 70 68 67 68
100 101 100 94 85 74 66 63 65 69 72 74 76 77 77 79 84 87 89 89 90 91 92 94 94 95 96 97 98 99 100 100 101 101 101 101 101 101 102 102 103 103 102 101 100 100 99 98 98 98 98 97 96 95 95 93 90 87 82 77 73 70 66 64 62 60 59 59 60 61 61 61 62 63
99 100 101 101 99 96 90 83 77 73 71 70 72 74 75 76 79 82 85 89 93 96 97 98 98 98 98 98 99 100 101 101 101 101 101 101 101 100 100 101 102 102 101 100 100 100 99 100 101 101 100 98 94 89 84 78 74 69 65 61 59 57 56 55 54 53 53 52 51 51 52 52 52 52
97 99 101 101 101 101 101 99 97 94 91 89 89 88 88 89 91 94 97 99 100 101 101 101 100 99 97 96 97 99 100 101 103 103 102 102 102 101 101 101 101 101 101 101 101 100 100 101 100 97 92 86 78 71 65 61 58 56 53 51 51 51 49 48 48 48 48 48 47 46 45 45 45 45
96 97 99 100 99 100 101 102 102 102 100 100 99 99 100 101 102 102 102 102 102 102 102 101 99 97 96 96 98 100 100 101 102 104 103 102 101 101 100 100 101 101 102 102 101 99 96 92 85 79 72 66 60 56 54 53 52 51 51 51 51 51 51 50 49 49 49 49 49 48 46 45 45 44
93 95 97 98 97 98 99 100 101 101 99 98 99 99 100 100 101 101 101 101 101 101 100 98 97 96 96 97 99 100 101 101 102 104 104 102 102 102 101 102 103 101 98 93 87 81 76 70 65 61 57 53 52 51 50 49 49 50 53 56 57 56 55 55 55 54 53 53 52 50 49 48 47 46
90 90 93 96 96 96 95 96 99 101 101 100 100 100 100 100 100 101 101 101 101 100 99 98 98 97 96 97 99 99 99 99 100 101 101 100 99 97 93 90 86 80 73 67 61 58 57 55 53 51 50 48 49 49 48 48 49 51 55 61 64 64 63 61 59 57 55 54 52 50 48 47 45 44
92 91 91 92 94 95 95 96 98 100 101 102 102 102 102 102 101 100 98 96 93 89 86 85 83 82 81 80 80 79 78 77 77 77 76 75 74 70 66 61 56 52 50 49 49 50 50 49 48 47 47 48 49 49 50 51 53 56 60 65 68 69 68 65 62 59 56 53 50 46 43 41 40 39
88 91 92 92 93 93 93 93 94 95 97 98 98 99 99 99 96 92 87 81 75 70 66 63 60 59 58 56 55 55 54 53 53 52 51 50 48 47 46 45 44 45 47 49 50 50 49 48 48 47 48 50 51 53 54 55 57 61 64 66 68 68 67 64 62 59 55 51 47 44 43 43 42 41
86 88 91 94 95 94 94 92 92 92 93 93 93 93 91 89 85 79 73 67 61 55 51 48 46 44 43 41 41 41 41 41 41 40 41 42 42 43 45 46 47 49 50 51 51 51 51 51 52 52 54 56 57 58 59 61 63 66 67 68 68 66 65 63 60 55 51 48 47 49 50 48 44 38
Wind_Speed
53 50 49 52 52 49 48 48 50 51 51 51 50 48 46 46 46 49 51 55 57 56 55 55 54 52 50 49 50 53 55 56 57 57 59 62 63 63 62 61 60 60 60 59 57 55 54 52 51 51 52 53 53 52 50 48 47 47 47 47 47 47 45 43 43 42 41 42 45 47 48 49 49 48
53 54 53 54 56 53 47 46 47 49 48 49 50 49 47 46 46 47 50 53 54 54 53 52 51 50 50 50 50 50 51 53 53 53 54 57 59 60 60 61 61 61 60 60 59 58 56 54 52 52 53 54 54 53 51 49 48 48 47 48 49 48 47 46 45 45 45 45 46 47 48 49 48 47
45 48 47 49 54 56 52 48 47 48 48 47 48 50 48 47 47 47 48 53 56 55 54 52 50 49 50 50 51 51 50 50 50 50 51 52 53 56 58 60 60 60 60 60 60 59 56 54 53 53 53 54 54 54 53 50 48 48 48 48 49 49 48 48 47 47 47 47 49 48 47 45 43 42
41 42 40 39 44 51 53 53 50 48 49 49 48 49 49 47 47 47 48 54 58 58 57 56 53 50 49 50 51 52 52 52 52 52 51 51 51 52 53 55 57 58 59 60 59 58 56 54 53 53 54 54 54 54 53 51 49 48 48 49 49 50 50 49 49 49 49 49 50 49 46 45 42 41
41 41 39 35 36 42 49 55 55 51 49 50 49 49 49 48 48 48 50 56 61 62 60 60 58 54 50 49 51 52 52 53 53 54 54 53 53 52 51 51 53 55 56 57 58 57 55 54 54 54 55 55 55 54 53 52 51 50 49 49 49 50 50 50 49 50 50 50 51 49 48 47 45 44
42 42 42 39 36 38 44 53 58 55 51 50 50 49 50 50 49 49 51 54 59 61 60 60 60 59 55 51 50 51 52 51 51 52 53 53 53 53 52 52 52 53 54 55 56 56 55 55 55 56 56 56 55 54 54 53 52 51 50 50 50 49 50 50 50 50 51 51 51 51 50 48 47 46
41 43 45 45 41 39 41 48 55 56 54 54 53 51 50 50 50 50 51 52 55 57 58 57 57 58 58 56 52 50 50 50 49 50 51 51 51 51 52 52 52 53 54 55 56 56 56 56 56 57 57 57 56 55 54 54 52 51 51 50 50 50 50 50 51 51 52 52 52 51 51 49 49 48
40 40 43 44 42 40 40 43 48 53 54 55 55 55 54 53 52 51 51 52 53 55 56 57 56 55 56 57 55 52 51 50 50 49 50 50 50 50 50 51 51 52 54 55 56 57 57 57 58 58 58 58 56 56 56 55 54 53 52 51 51 51 51 52 52 53 53 53 52 52 52 51 50 50
41 40 41 41 40 40 40 41 44 47 50 52 54 56 56 56 56 55 54 53 53 54 55 56 57 55 54 56 56 55 52 51 51 50 49 49 49 49 49 50 51 52 54 56 57 58 58 58 58 58 58 58 58 57 58 58 57 56 55 54 54 53 53 53 53 53 53 53 53 53 53 53 52 52
43 42 41 40 39 39 40 41 42 44 46 48 50 52 54 56 57 57 57 56 54 54 54 54 55 55 53 53 55 56 54 51 50 50 48 48 48 48 49 49 50 52 54 56 57 58 59 59 59 58 58 59 58 58 58 59 59 58 57 57 56 55 55 54 53 52 53 53 53 54 54 53 52 52
40 42 42 41 40 40 40 41 42 44 45 47 48 49 49 51 52 54 56 58 58 57 56 55 55 55 54 52 52 53 54 52 51 49 48 48 48 48 48 49 49 50 52 54 56 57 58 58 59 59 58 59 59 58 59 59 59 59 59 59 58 57 56 56 55 53 53 53 53 53 53 53 52 52
36 38 39 40 40 40 39 40 41 43 44 46 47 47 47 48 49 50 51 54 56 58 58 57 56 56 55 54 53 51 52 54 54 52 50 49 49 48 47 48 48 49 51 52 54 55 57 58 59 59 59 59 59 59 59 59 60 60 60 61 60 58 56 56 56 56 56 55 54 53 53 52 53 53
33 35 36 38 38 37 37 37 39 41 43 44 45 46 46 47 48 49 49 50 51 53 55 55 55 55 55 55 54 53 52 53 53 53 52 51 50 48 47 47 47 49 50 52 53 54 56 57 58 59 60 60 60 60 59 59 59 59 60 61 60 59 57 56 57 58 58 57 56 55 55 54 54 54
28 30 31 33 34 34 34 34 36 39 42 43 44 45 45 45 46 46 47 47 47 48 49 50 51 52 53 53 53 53 52 50 50 51 52 52 51 51 50 49 48 48 49 51 52 54 55 56 57 58 59 59 59 60 59 59 58 59 59 60 60 59 58 57 58 59 59 59 58 58 57 57 56 56
24 25 27 28 29 31 32 32 34 37 40 42 44 45 46 46 46 45 45 45 45 45 46 47 47 47 49 49 49 49 48 47 47 48 49 50 51 51 51 51 50 49 49 50 51 52 53 55 56 57 58 58 58 58 58 58 59 59 60 60 60 59 59 59 59 60 61 61 61 61 60 59 58 58
25 25 26 28 29 30 31 32 34 35 36 38 40 42 44 45 46 47 46 45 44 43 44 44 44 45 45 46 47 46 46 45 45 45 46 47 48 49 50 50 51 50 49 49 50 51 51 52 53 54 56 57 57 57 57 57 58 59 59 59 59 59 60 60 60 61 62 63 63 63 62 61 61 60
25 26 27 28 29 30 31 32 32 33 33 34 35 37 38 40 42 44 46 47 45 44 43 43 43 43 43 43 44 44 44 45 45 46 46 47 46 47 47 48 48 48 48 49 50 50 50 50 50 51 52 54 55 56 56 57 58 58 59 59 59 59 59 60 61 62 62 63 63 64 63 62 62 62
25 26 27 28 29 30 31 31 31 31 31 31 32 33 34 35 36 39 41 44 45 45 44 44 43 41 39 39 39 40 42 44 46 46 46 46 46 45 45 45 46 47 47 47 48 49 49 49 49 49 49 51 52 53 55 56 56 57 59 60 60 60 60 60 61 62 62 62 63 63 64 64 63 63
26 27 28 29 30 30 31 31 31 31 31 31 31 32 33 33 33 35 36 38 41 43 43 43 43 40 37 36 35 36 38 41 44 45 46 46 47 46 46 46 46 46 46 46 47 48 48 48 48 48 48 48 49 50 52 53 55 56 57 59 60 61 62 62 62 62 63 63 63 63 64 64 64 64
26 27 28 30 31 32 33 33 33 33 33 33 33 33 32 32 32 32 33 35 36 38 40 41 42 41 38 37 36 35 36 38 40 42 44 46 48 47 47 47 47 46 45 45 45 46 47 47 47 48 48 49 49 49 49 51 52 55 56 58 59 60 61 62 63 63 64 64 65 65 65 65 65 64
26 27 28 30 31 32 33 34 35 35 35 35 36 35 33 32 31 31 31 33 34 35 36 38 40 40 40 39 38 36 35 35 38 41 43 45 46 46 46 47 47 46 46 45 45 45 45 45 46 47 48 49 50 50 50 50 50 52 53 55 57 59 60 60 61 62 64 65 65 66 66 67 66 65
30 31 32 34 35 36 36 35 35 35 34 35 36 36 35 33 32 31 30 30 31 32 33 34 36 38 38 38 37 35 33 33 36 39 41 42 43 44 45 46 46 46 46 45 45 46 46 46 46 46 47 48 49 51 51 52 51 51 52 53 54 56 57 59 60 61 61 62 63 64 65 66 66 66
33 34 35 36 38 39 40 40 39 36 34 34 35 35 36 36 34 32 30 29 28 29 29 30 31 32 32 33 32 32 31 32 33 35 37 39 41 43 44 44 45 46 45 45 46 47 47 47 47 47 46 47 48 48 50 51 51 51 52 52 53 54 55 56 57 58 59 60 61 62 62 63 64 64
31 32 32 32 32 34 36 39 41 40 37 35 34 34 35 36 35 33 31 29 28 28 28 28 28 29 29 29 30 30 31 32 33 34 36 37 39 41 42 42 43 44 43 43 45 46 46 47 47 47 47 47 47 46 46 48 49 49 50 51 52 53 54 55 56 57 57 58 59 60 61 62 62 62
26 26 26 26 26 27 29 32 34 38 39 37 34 33 33 33 33 32 30 29 28 28 28 28 29 30 30 29 30 30 31 32 33 34 35 36 37 39 40 40 41 42 42 41 43 44 45 45 46 47 47 48 47 47 46 46 46 47 48 48 49 51 52 54 55 56 57 57 57 58 60 60 61 61
22 23 24 25 24 25 27 27 26 31 37 38 35 34 32 30 30 29 28 28 29 29 29 29 30 31 31 31 31 31 32 32 32 31 32 33 35 36 37 38 40 40 40 41 42 43 44 45 45 46 47 48 48 48 48 47 47 46 47 47 48 49 50 51 53 54 56 57 57 58 58 59 59 60
20 20 19 20 22 24 26 26 23 25 32 38 37 34 32 29 28 27 28 29 29 29 29 29 30 30 30 30 30 30 30 29 27 26 25 26 28 31 33 36 38 39 40 41 42 43 44 45 46 46 47 48 48 48 48 48 48 48 47 46 47 47 48 49 50 52 53 55 57 58 59 59 59 60
17 15 13 12 14 18 22 23 21 22 29 36 36 34 31 29 27 27 29 29 28 28 28 29 30 30 29 29 29 28 27 26 24 23 23 24 24 26 28 31 34 37 39 41 42 42 43 44 44 45 45 46 46 47 47 47 48 48 47 47 47 47 47 48 49 50 51 53 54 56 58 58 59 59
13 12 10 8 7 11 16 19 20 22 28 34 35 33 30 28 26 27 27 27 27 27 28 28 28 27 26 26 26 25 26 26 25 26 26 26 26 26 27 28 30 34 38 40 41 42 42 42 43 43 43 44 45 45 45 45 46 46 47 47 47 47 47 47 48 49 50 51 52 53 55 56 57 57
9 9 8 5 5 9 14 16 18 22 28 33 33 31 28 27 26 25 24 24 26 27 27 27 26 25 25 24 24 24 25 26 27 28 28 29 29 29 29 29 30 31 34 38 40 41 41 41 42 42 42 43 44 44 44 44 44 44 45 46 46 47 47 47 47 47 48 50 51 52 53 53 54 54
8 6 5 2 4 9 14 16 18 22 28 31 31 28 26 25 25 24 24 24 24 24 25 25 25 25 25 24 24 25 26 27 29 30 30 31 32 32 32 32 31 30 31 34 38 40 40 40 40 41 42 42 42 42 42 42 42 42 42 43 44 45 46 46 47 47 48 49 50 51 51 51 51 51
9 6 5 2 2 7 13 16 19 23 28 31 30 27 25 25 25 26 25 25 24 24 25 25 25 25 25 25 26 27 28 29 30 31 31 31 32 33 34 34 35 34 32 32 34 36 37 38 38 39 39 40 40 40 40 40 40 40 40 41 42 43 44 46 47 48 48 49 49 48 49 49 49 49
11 8 7 4 2 6 11 15 18 22 28 31 30 28 27 27 26 26 25 25 25 25 25 26 26 26 27 27 28 29 30 30 31 31 32 32 33 35 36 37 38 38 36 34 33 34 34 35 36 37 37 38 38 39 39 39 39 39 39 39 40 41 43 44 45 46 46 47 47 46 46 46 45 46
9 8 7 6 5 6 10 14 18 22 27 29 29 28 28 27 26 26 26 26 25 25 25 26 26 27 28 28 29 30 31 32 32 33 35 35 37 38 40 40 41 40 39 37 35 35 35 35 36 36 37 37 38 38 39 38 37 37 37 38 39 40 40 40 41 42 43 44 44 43 43 42 42 43
6 7 6 4 5 8 11 14 18 22 25 27 28 28 28 27 26 26 26 26 26 26 27 27 28 29 30 31 32 32 32 33 34 34 35 37 38 40 41 42 42 41 40 38 37 36 35 35 35 35 36 37 37 37 37 36 34 34 35 36 36 36 36 36 37 38 39 40 40 40 40 39 39 40
3 4 4 2 2 6 11 15 19 22 24 26 28 28 28 28 27 27 27 27 27 28 28 29 30 31 31 31 31 31 31 32 33 33 35 37 39 40 41 40 39 38 37 36 35 34 34 34 34 34 34 35 35 34 33 32 31 31 32 32 32 31 32 33 34 34 35 36 38 39 39 38 38 38
3 4 4 3 3 4 8 12 17 21 24 26 28 29 30 29 29 29 29 29 29 29 29 30 30 30 29 29 28 29 29 30 31 32 33 35 36 36 36 35 34 33 33 33 32 32 32 32 32 32 32 32 32 30 28 28 29 29 29 29 29 29 31 32 32 33 34 35 37 38 39 40 38 38
2 3 5 6 6 7 8 10 13 17 20 23 26 28 29 30 29 29 29 29 29 29 29 29 28 27 27 26 26 26 27 27 28 30 31 31 32 31 31 30 30 30 31 30 30 30 30 30 30 30 29 29 28 26 25 26 28 28 27 27 28 29 31 32 32 33 34 35 36 37 39 40 40 39
1 1 2 4 6 8 9 11 13 14 17 19 22 24 25 26 26 26 27 27 27 26 26 26 25 25 24 23 22 22 23 24 25 26 27 27 27 28 28 28 29 29 29 29 29 28 28 27 26 26 26 26 26 25 26 27 28 27 27 27 28 29 30 31 32 32 33 34 35 37 39 40 41 40
2 1 0 1 3 5 7 9 11 13 15 17 19 20 20 21 21 21 21 22 21 21 22 22 21 21 20 19 19 19 20 21 22 23 23 24 25 26 27 27 27 28 28 27 26 25 24 23 23 24 26 27 27 27 27 27 27 26 25 26 27 28 30 31 31 32 33 34 36 38 39 40 41 41
4 2 1 1 1 3 4 6 7 9 10 11 12 13 14 14 15 15 15 16 16 16 17 17 17 17 16 16 16 16 17 18 19 20 21 22 23 24 25 25 26 25 25 24 23 21 21 22 25 27 28 27 27 27 27 27 26 24 24 26 28 29 30 32 33 34 35 36 38 40 40 40 41 42
7 5 3 2 1 1 2 3 4 4 5 5 6 6 7 8 9 10 11 12 12 12 12 12 13 13 13 13 14 14 15 16 17 18 19 20 21 22 23 23 22 22 21 21 20 20 22 25 27 28 27 26 26 27 27 26 25 25 26 27 29 31 32 34 36 37 38 39 40 41 40 40 42 43
8 7 5 3 1 1 1 1 2 2 2 2 3 4 5 6 7 8 9 9 10 10 10 9 10 10 11 12 12 13 13 14 15 16 17 18 19 20 20 20 20 20 20 21 22 24 26 27 28 27 27 26 27 28 27 27 27 28 28 29 31 32 34 36 38 40 41 41 41 41 41 41 42 43
8 7 5 4 2 1 1 1 2 2 2 3 4 4 5 6 7 7 8 8 9 9 9 9 10 10 11 11 12 12 13 14 15 16 17 17 18 19 19 20 20 21 22 23 25 26 26 27 27 27 27 27 28 29 29 29 30 31 32 32 33 34 36 38 40 42 43 42 41 41 41 42 43 43
9 7 6 4 3 2 3 3 3 3 4 5 5 6 7 7 8 8 8 9 9 10 10 11 11 12 12 12 13 13 14 15 16 16 17 18 18 19 20 21 21 22 23 24 25 25 26 27 27 28 28 29 30 31 31 32 34 35 35 36 37 37 38 40 41 42 43 41 40 40 42 43 44 43
Wind_Direction
236 239 236 233 234 235 232 233 234 234 236 237 237 237 237 236 235 234 233 233 234 236 237 237 238 239 239 238 237 237 236 233 230 230 230 231 232 234 234 234 233 235 237 239 239 238 238 237 237 237 239 241 242 241 240 239 239 239 240 241 242 243 243 242 242 241 239 239 240 240 240 241 242 242
236 239 240 237 237 237 233 232 233 233 234 235 236 237 237 238 238 237 237 236 235 235 236 236 235 235 235 235 235 235 235 233 231 230 230 231 231 232 231 231 232 232 234 236 237 237 237 237 236 236 238 239 241 242 240 238 237 237 237 239 240 241 241 241 242 242 242 242 242 243 242 243 243 244
235 236 238 238 238 238 234 231 230 230 230 233 234 235 235 236 238 239 239 238 236 235 236 236 236 235 234 234 234 235 235 235 232 230 230 230 229 228 227 227 229 230 230 232 234 235 235 235 235 236 236 238 239 241 241 239 237 236 236 237 238 239 240 240 240 241 242 243 244 246 246 247 246 245
234 233 234 237 239 237 233 231 230 229 228 230 233 234 233 233 235 237 238 238 237 237 236 235 236 236 235 234 234 235 235 236 236 234 232 231 229 226 225 224 224 226 227 229 231 232 234 234 235 235 236 236 237 238 239 239 237 236 236 236 237 238 239 239 240 240 241 242 245 246 247 247 245 242
232 230 229 233 239 237 232 230 230 230 228 228 230 231 231 231 233 234 236 237 238 238 238 236 236 237 237 236 235 235 236 236 236 237 236 235 233 231 229 227 225 225 226 228 230 231 233 234 234 235 235 235 235 236 237 237 237 236 235 235 236 237 239 239 240 240 241 242 244 245 246 246 245 243
231 230 228 229 233 235 233 229 230 231 230 228 228 228 229 231 232 233 236 237 238 239 240 239 237 237 237 237 236 235 235 235 236 236 236 237 236 235 233 231 230 229 229 230 231 232 233 233 233 234 234 234 234 234 235 236 236 235 235 235 235 236 238 238 239 241 241 242 244 245 246 246 246 245
230 230 230 230 232 234 233 230 230 231 231 230 230 229 230 231 232 233 236 238 239 239 240 241 240 238 238 238 238 236 234 233 234 235 236 236 236 235 234 233 231 230 230 231 233 233 233 232 232 233 233 233 233 232 234 235 236 235 235 235 235 235 236 237 238 240 241 242 243 245 246 246 247 246
230 230 231 231 232 234 235 233 232 232 233 233 233 233 233 233 234 236 238 240 241 241 241 241 241 240 238 237 237 237 236 234 233 234 234 235 235 235 234 234 232 230 228 229 231 232 232 232 232 232 233 233 232 231 232 233 234 235 236 235 235 235 235 235 237 238 240 241 243 244 245 246 246 246
231 232 233 233 233 234 235 236 236 236 236 236 236 236 237 238 238 239 240 241 241 241 241 242 241 241 240 237 236 236 237 236 234 234 234 234 235 234 233 233 232 230 228 227 228 230 231 231 231 232 233 233 233 231 231 232 234 235 236 237 237 236 236 235 236 238 239 241 242 243 244 245 245 246
232 234 235 235 235 234 235 236 238 239 239 239 239 238 239 240 240 240 240 240 240 240 240 241 241 241 242 240 237 236 238 238 236 234 234 234 234 234 233 232 231 230 229 227 227 228 229 230 230 231 232 233 234 232 232 232 234 235 236 237 238 238 238 238 237 238 240 241 242 243 244 245 246 246
235 236 237 238 238 238 238 237 238 240 241 241 241 240 240 241 241 240 239 239 240 241 241 241 241 242 242 243 240 238 238 239 237 234 233 234 234 234 234 233 231 229 228 228 228 228 229 229 230 231 231 232 234 234 233 233 234 235 237 238 239 240 240 241 240 239 240 240 241 242 244 245 245 246
236 236 237 239 240 242 243 242 240 240 241 241 242 242 242 242 241 241 239 239 239 241 242 242 242 242 242 242 242 239 238 239 239 237 235 234 234 234 234 233 231 229 228 228 228 229 229 230 231 232 232 233 234 234 235 235 235 235 237 239 240 240 241 242 241 240 240 240 240 241 243 244 244 245
237 237 237 238 240 241 243 242 239 238 239 240 240 241 241 242 241 240 239 238 238 239 240 241 242 242 242 241 241 240 239 239 240 240 239 237 235 235 234 234 232 231 230 229 228 228 229 230 231 232 233 235 236 237 237 237 236 236 237 238 240 241 242 242 242 241 241 241 241 241 242 243 244 245
237 237 237 237 238 239 240 239 237 236 237 238 239 239 239 239 239 239 238 238 238 238 239 239 240 241 240 240 240 240 240 240 240 240 240 239 238 237 236 235 234 234 233 232 231 230 230 230 230 231 232 234 236 237 239 239 239 238 238 238 240 241 243 243 243 242 242 242 242 243 243 243 244 245
237 237 237 236 236 236 236 236 236 236 237 238 239 239 238 238 237 238 238 239 239 240 239 239 238 239 239 239 239 239 239 240 241 241 240 240 239 238 237 237 237 236 236 235 234 234 233 233 232 232 231 232 234 235 237 238 239 239 239 239 240 241 242 243 243 243 243 242 242 242 242 243 244 244
237 238 239 238 238 237 236 236 235 236 237 238 239 239 239 239 238 239 239 239 240 241 241 240 239 238 239 239 238 238 238 239 241 242 242 241 241 239 239 238 237 237 236 235 235 235 235 235 236 235 234 233 234 234 235 236 237 238 239 239 240 240 241 242 242 243 244 243 243 242 242 242 243 244
239 239 239 239 240 240 240 239 238 238 238 240 241 240 239 239 239 239 239 239 239 239 240 241 241 240 239 239 239 239 239 240 241 243 243 243 243 242 241 240 238 237 235 235 235 235 235 235 236 237 236 236 235 235 235 236 236 237 237 238 239 239 239 240 241 242 244 244 245 245 245 245 245 245
239 239 239 240 240 240 241 242 241 240 239 240 241 241 240 239 238 238 238 239 238 237 237 239 241 242 243 245 244 243 242 242 242 243 244 245 246 245 244 242 240 239 237 236 236 236 235 235 235 235 236 237 237 237 237 237 237 238 238 238 238 239 239 239 240 241 242 243 244 246 247 247 248 247
240 240 240 240 240 239 240 240 241 241 240 239 239 239 240 240 238 237 237 237 237 237 237 238 239 241 245 248 249 246 244 243 243 244 245 246 247 245 244 242 241 240 240 238 237 237 236 235 235 234 234 235 236 236 237 237 237 238 239 239 239 239 239 239 239 240 240 241 242 244 245 247 248 248
250 249 247 246 244 241 239 237 237 238 238 237 237 237 237 237 237 236 235 235 235 236 236 236 237 239 242 246 248 247 245 244 243 244 244 245 245 245 244 244 243 242 241 240 239 238 236 236 235 234 234 234 235 236 236 236 237 237 238 239 239 239 239 240 240 240 241 241 242 243 244 246 247 248
264 262 260 258 254 250 245 239 234 232 233 235 235 234 234 234 234 233 232 233 233 235 235 235 236 239 242 244 247 248 247 245 244 243 243 244 246 246 246 246 245 244 244 242 242 241 239 238 237 237 236 235 236 236 237 237 238 238 238 239 240 240 240 240 241 241 242 242 243 243 244 245 247 248
268 266 264 262 260 258 254 247 239 233 231 233 234 233 232 231 230 230 229 230 231 233 235 236 237 239 241 244 246 247 246 246 244 243 244 245 246 246 246 246 246 246 245 244 243 242 240 239 239 239 239 239 238 238 239 239 240 241 240 241 241 241 242 242 242 243 243 244 244 245 245 246 247 248
269 268 266 263 261 259 256 253 247 240 234 232 232 232 232 230 229 228 228 228 228 229 231 233 235 237 239 240 241 242 242 242 241 242 243 243 244 245 246 246 246 246 246 246 245 244 242 240 240 240 241 241 241 240 240 241 242 243 244 244 244 244 244 244 244 244 245 245 245 245 246 246 247 247
265 265 264 262 260 259 256 252 247 241 235 232 232 231 230 229 228 229 229 228 228 229 229 231 233 235 236 236 237 239 240 240 239 240 241 242 242 244 245 246 246 247 247 247 247 247 245 244 242 242 242 242 242 241 241 242 243 244 245 246 246 247 246 246 246 246 246 246 246 246 245 245 246 247
262 262 262 260 257 255 252 249 245 237 230 228 230 230 229 228 228 229 229 228 228 228 228 229 231 233 235 235 236 238 240 240 240 241 242 243 243 245 246 245 246 247 248 248 249 248 247 246 244 243 243 242 242 242 241 241 242 243 245 246 247 247 248 248 248 248 247 247 247 247 246 246 246 247
278 277 272 265 256 251 247 243 240 234 224 220 224 228 227 226 226 226 226 226 226 227 228 229 230 232 235 236 236 236 237 239 241 242 244 245 245 246 246 245 245 246 246 247 246 246 246 245 244 244 243 243 243 243 242 242 242 243 244 245 246 247 247 248 248 248 248 248 248 248 248 247 247 247
298 291 283 272 259 249 241 234 231 228 219 213 217 223 224 223 224 224 222 222 224 225 227 229 230 232 234 235 235 234 233 234 235 239 242 244 246 247 247 246 246 245 245 246 246 245 245 245 244 244 244 244 244 244 243 243 244 244 245 246 247 247 248 248 248 249 249 249 249 249 249 249 249 249
311 305 299 289 267 245 231 224 223 221 213 209 211 217 221 220 220 221 220 220 222 224 226 229 231 233 233 232 233 233 231 231 234 239 242 243 245 247 249 249 248 246 246 246 247 247 247 247 247 247 247 248 247 247 246 247 247 247 247 248 249 250 250 250 249 249 249 249 249 248 249 249 250 250
323 319 309 298 271 233 218 216 218 214 207 203 205 211 216 216 215 216 217 218 219 222 225 229 233 235 235 235 237 236 234 236 243 247 249 249 250 252 255 257 255 250 247 246 246 246 247 248 248 249 249 249 249 249 248 249 249 250 250 251 251 252 252 252 251 251 251 250 250 249 249 249 250 251
340 339 321 288 234 210 206 211 214 208 200 197 200 205 209 209 209 211 214 217 220 223 226 229 232 235 237 240 242 242 241 242 245 249 251 254 257 259 260 263 262 256 249 246 245 245 245 246 247 247 247 248 248 248 248 248 249 250 251 252 253 253 254 253 253 253 252 252 251 251 250 250 250 251
2 12 360 323 212 200 199 203 206 201 195 193 195 198 200 203 207 210 214 219 224 227 231 233 233 235 239 243 246 248 247 247 247 249 249 249 252 254 255 258 262 260 252 247 245 244 245 245 245 245 245 246 247 248 249 250 251 252 253 254 255 255 255 255 254 254 252 252 251 251 251 251 251 251
5 31 49 47 187 191 191 195 197 194 191 190 192 193 196 202 208 212 216 221 225 229 232 234 236 238 240 243 246 247 247 247 247 248 247 246 247 248 248 251 256 259 258 254 251 249 248 248 248 247 248 248 249 251 252 252 253 254 255 255 255 256 256 256 255 254 252 251 251 251 251 251 251 252
357 21 53 72 131 178 182 185 187 187 188 191 194 197 200 204 210 214 219 224 228 231 234 237 240 243 245 247 248 248 247 247 247 247 248 248 247 246 245 247 251 255 258 258 256 253 251 251 251 250 250 251 251 252 253 253 254 254 254 254 254 255 255 254 253 253 252 251 250 250 249 250 250 250
349 4 34 71 108 148 167 174 179 183 189 194 198 202 204 208 213 219 223 227 231 235 239 243 246 249 251 252 252 252 251 251 250 249 249 248 246 244 245 247 250 253 257 258 257 254 253 251 251 251 251 251 251 251 252 253 253 253 252 252 253 253 253 252 251 251 251 252 251 249 248 248 248 249
336 345 1 54 113 141 159 171 179 187 194 199 203 207 211 215 220 224 227 231 235 239 243 247 249 252 253 254 255 256 255 253 251 249 247 245 244 244 245 247 250 254 257 257 256 254 253 252 252 251 251 251 251 252 252 252 252 251 251 251 251 251 250 250 249 249 250 251 251 251 249 248 247 249
287 303 318 333 138 159 168 178 186 193 200 206 209 213 217 222 226 229 232 235 239 242 246 250 254 256 257 257 256 255 254 252 250 248 246 245 245 246 247 249 252 254 255 255 253 252 251 250 250 250 250 251 251 251 251 251 250 249 249 249 249 249 248 249 249 249 250 251 252 252 252 250 249 249
245 240 244 250 240 208 194 193 196 201 206 211 215 220 224 228 232 235 237 241 245 250 254 258 260 260 260 258 257 254 251 249 246 245 245 245 246 248 249 250 250 250 250 250 250 250 249 249 249 249 249 249 249 249 247 247 246 246 247 247 247 246 247 247 248 249 250 250 252 253 253 253 251 249
241 222 221 220 221 222 220 215 213 214 217 219 222 226 230 234 238 241 245 249 253 257 260 261 260 260 259 258 257 254 249 245 243 243 244 245 246 247 247 247 247 246 246 246 246 246 246 247 246 246 246 246 246 245 242 243 243 244 244 244 244 244 245 246 247 247 248 250 251 252 253 253 252 249
295 228 222 221 218 217 219 221 222 223 226 228 231 234 237 240 244 247 251 253 255 257 257 256 255 255 254 253 251 249 246 243 241 241 243 243 243 243 242 242 243 243 243 243 242 242 242 242 242 243 243 243 242 240 239 240 242 242 241 242 242 244 246 248 249 249 251 253 254 254 254 255 254 253
3 18 37 246 238 225 219 220 221 222 226 230 234 237 240 244 246 248 250 251 252 253 253 252 251 249 248 247 245 244 243 241 240 239 238 238 238 239 240 240 241 241 241 241 240 240 240 240 240 240 240 240 240 239 239 240 241 241 243 245 246 248 251 253 255 255 256 258 259 259 259 259 259 259
15 18 49 28 281 238 218 212 213 216 220 223 225 229 233 236 239 242 244 246 247 248 249 248 247 245 243 242 241 240 240 239 237 236 235 235 235 237 237 239 239 240 240 240 240 240 240 240 239 239 239 240 241 240 240 240 240 241 245 250 253 256 258 259 261 261 261 262 262 262 262 263 263 262
17 14 22 36 21 268 214 198 193 195 201 207 213 220 226 231 235 238 240 242 242 242 241 242 244 243 240 237 235 235 234 234 234 233 233 234 235 236 237 238 240 240 242 243 242 240 239 239 239 240 241 241 241 241 242 243 243 244 246 251 257 261 264 265 266 266 266 265 265 265 264 264 263 262
18 13 7 6 9 336 236 204 188 179 188 204 218 225 228 232 235 237 240 242 242 241 241 240 241 242 241 237 234 233 231 231 232 232 233 233 235 237 239 241 242 243 243 242 241 240 239 240 243 244 243 243 244 246 248 250 251 252 253 255 259 263 267 270 271 272 271 270 269 268 267 266 264 264
7 5 358 350 329 290 264 250 242 241 241 242 246 245 242 241 241 240 240 241 243 245 246 244 242 243 243 242 241 239 238 237 237 237 238 238 239 239 241 242 242 243 243 242 243 243 244 245 247 247 248 249 251 254 256 257 258 259 260 262 263 265 268 270 271 271 271 272 272 271 270 268 267 267
344 343 343 338 314 277 258 246 241 239 238 238 242 245 246 246 246 246 246 247 247 248 248 247 247 247 247 246 245 243 242 242 242 243 244 245 245 245 246 246 247 247 247 247 247 248 249 251 253 254 256 258 260 261 263 264 265 266 266 267 268 269 270 270 269 269 269 270 272 273 273 272 271 271